Location: UBC Liquid-Mirror Observatory
(49.2876°N, 122.5728°W)
Time: 08:16:25
(UTC-08:00)

Daily predictions for brighter satellites

Satellite Brightness Start Highest point End
(mag) Time Altitude Azimuth Time Altitude Azimuth Time Altitude Azimuth
Ariane Rocket 3.0 17:13:32 10° SSE 17:18:33 65° ENE 17:23:36 10° N
Meteor 1-28 Rocket 3.7 17:18:52 10° NNE 17:22:31 41° E 17:26:07 10° S
Cosmos 1726 2.1 17:19:10 10° N 17:22:50 63° ENE 17:26:28 10° SSE
ERBS 3.6 17:24:02 10° NW 17:26:58 26° NNE 17:29:53 10° ENE
Cosmos 1908 3.8 17:23:22 10° NNW 17:27:14 64° W 17:31:02 10° S
Cosmos 2181 Rocket 4.3 17:21:04 10° SSE 17:27:16 52° E 17:33:27 10° NNE
FENGYUN 3A 4.2 17:22:57 10° SE 17:27:44 34° ENE 17:32:32 10° N
CZ-4 R/B 1.5 17:25:05 10° SSE 17:29:15 60° ENE 17:33:27 10° N
USA 215 3.6 17:24:07 10° ENE 17:30:29 57° NNW 17:36:52 10° W
Cosmos 2333 Rocket 4.4 17:28:08 10° WNW 17:31:20 15° NNW 17:34:32 10° N
SMAP 3.1 17:28:19 10° SSE 17:32:59 90° NE 17:37:40 10° NNW
ATLAS 5 CENTAUR R/B 3.8 17:32:10 10° NW 17:35:50 19° N 17:39:49 10° NE
Cosmos 1777 Rocket 4.3 17:31:57 10° NNW 17:37:00 45° ENE 17:42:01 10° SE
Cosmos 1346 Rocket 3.9 17:33:52 10° NNE 17:37:04 23° ENE 17:40:13 10° ESE
COSMO-SKYMED 1 3.6 17:33:23 10° NE 17:37:05 27° E 17:40:45 10° SSE
SL-8 Rocket 4.0 17:31:25 10° N 17:37:34 63° ENE 17:43:43 10° SSE
KORONAS-FOTON 3.7 17:36:20 10° S 17:40:07 86° E 17:43:56 10° N
METEOR-M 4.1 17:35:38 10° SSE 17:40:55 64° ENE 17:46:14 10° N
CSL-04 Debris 4.4 17:35:35 10° SSE 17:41:02 80° WSW 17:46:34 10° NNW
SPOT 3 Rocket 4.1 17:36:55 10° SE 17:41:35 36° ENE 17:46:17 10° N
Cosmos 1076 Rocket 3.8 17:37:47 10° SSE 17:41:57 46° E 17:46:09 10° NNE
Meteor 2-10 3.9 17:37:05 10° NNW 17:42:10 86° E 17:47:16 10° SSE
Cosmos 1315 Rocket 3.6 17:40:36 10° SSE 17:44:02 29° E 17:47:28 10° NNE
NOSS 2-1 (C) 3.5 17:40:58 10° SW 17:44:41 72° NW 17:49:04 10° NE
Cosmos 2218 Rocket 4.0 17:38:41 10° N 17:44:48 60° ENE 17:50:51 10° SSE
BREEZE-M DEB 4.4 17:42:25 10° W 17:45:12 69° SSW 17:49:00 10° ESE
NOSS 2-1 (D) 3.5 17:41:38 10° SW 17:45:21 70° NW 17:49:45 10° NE
USA 116 4.3 17:41:32 10° NNE 17:45:41 51° E 17:50:18 10° S
H-2A R/B 4.1 17:43:59 10° ESE 17:46:46 19° ENE 17:49:34 10° NNE
Cosmos 1992 Rocket 4.0 17:41:43 10° SSW 17:46:55 88° WNW 17:52:11 10° NNE
USA 161 3.3 17:47:18 10° NNW 17:49:05 21° WNW 17:50:46 10° WSW
Cosmos 1455 3.5 17:47:29 10° NNE 17:50:21 20° ENE 17:53:12 10° ESE
Cosmos 2228 Rocket 4.2 17:46:52 10° NNE 17:50:40 25° ENE 17:54:27 10° SE
SL-16 R/B 4.0 17:47:03 10° W 17:51:41 25° NW 17:56:21 10° NNE
Geosat 4.0 17:50:03 10° NE 17:55:05 67° ESE 18:00:05 10° SSW
Cosmos 968 Rocket 4.0 17:50:30 10° NNW 17:55:37 62° WSW 18:00:39 10° S
TELKOM 3 2.7 17:55:02 10° W 17:57:10 73° N 17:58:20 23° E
Cosmos 44 Rocket 4.3 17:53:38 10° S 17:57:33 27° ESE 18:00:20 16° ENE
Cosmos 1328 Rocket 4.1 17:54:34 10° N 17:58:36 34° ENE 18:02:35 10° SE
Tiangong 1 3.3 17:57:35 10° SW 17:59:07 15° SSW 18:00:38 10° SSE
BREEZE-M DEB (TANK) 3.4 17:56:32 10° SW 18:00:57 30° SSE 18:02:38 16° ESE
Cosmos 1943 3.4 17:56:35 10° SW 18:02:13 72° WNW 18:07:52 10° NNE
Cosmos 1674 4.2 17:59:27 10° SW 18:02:56 37° WNW 18:06:27 10° N
SL-08 R/B 4.4 17:58:38 10° N 18:04:51 68° ENE 18:10:56 10° SSE
Cosmos 1328 3.9 18:05:00 10° S 18:08:55 53° E 18:12:52 10° NNE
EO 1 Del DPAF 4.0 18:07:02 14° NE 18:09:48 32° E 18:13:15 10° SSE
Cosmos 1697 Rocket 4.2 18:06:24 10° N 18:09:58 17° NE 18:11:16 16° NE
Cosmos 1241 Rocket 4.4 18:04:51 10° NW 18:11:03 67° NE 18:17:16 10° SE
Cosmos 1400 Rocket 3.2 18:07:38 10° SSW 18:11:42 69° WNW 18:15:50 10° N
Cosmos 2098 Rocket 3.8 18:08:29 10° N 18:13:25 52° ENE 18:19:33 10° SSE
Cosmos 1626 2.5 18:09:57 10° SSE 18:13:28 41° E 18:16:33 13° NNE
NOSS 2-1 (E) 4.2 18:10:03 10° WSW 18:13:46 48° NW 18:17:34 13° NNE
Landsat 4 3.9 18:11:07 10° NNE 18:14:43 46° E 18:18:18 10° S
MONITOR-E 4.0 18:13:52 10° SSE 18:16:55 85° E 18:19:59 10° NNW
Cosmos 1766 Rocket 3.5 18:13:39 10° S 18:17:54 62° E 18:22:12 10° NNE
ALOS 2.2 18:14:58 10° SSE 18:19:39 87° ENE 18:24:21 10° NNW
Cosmos 2366 rocket 4.0 18:14:02 10° N 18:20:19 87° W 18:26:31 10° S
GEOS 3 Rocket 3.9 18:16:31 13° ESE 18:21:02 51° NE 18:26:16 10° NW
SKYMED 2 3.5 18:21:00 10° NNE 18:25:23 78° ESE 18:29:43 10° S
Cosmos 1821 Rocket 4.3 18:20:15 10° N 18:26:02 41° ENE 18:31:50 10° SE
Okean 3 Rocket 4.1 18:21:50 10° SSW 18:26:19 62° WNW 18:30:49 10° N
NOSS 3-4 (A) 4.1 18:21:17 10° NW 18:28:12 71° SW 18:35:39 10° SSE
NOSS 3-4 (C) 4.1 18:21:23 10° NW 18:28:19 72° SW 18:35:46 10° SSE
Cosmos 1300 4.2 18:24:49 10° NNW 18:28:25 39° W 18:31:59 10° SSW
Cosmos 1703 3.6 18:27:19 10° SSE 18:31:06 44° E 18:32:58 25° NE
Envisat 3.8 18:31:32 27° ENE 18:32:06 28° ENE 18:36:22 10° N
Cosmos 1151 Rocket 3.2 18:29:00 10° N 18:33:17 49° ENE 18:37:32 10° SSE
Meteor 2-2 Rocket 4.5 18:27:35 10° NNW 18:33:21 75° W 18:38:59 10° S
ERS-2 2.0 18:29:53 10° SSE 18:33:34 75° ENE 18:37:15 10° NNW
Cosmos 1656 Rocket 4.3 18:29:02 10° NW 18:34:24 58° WSW 18:39:48 10° S
NOAA 12 4.2 18:30:30 10° SSE 18:35:44 80° WSW 18:41:03 10° NNW
YAOGAN 1 4.0 18:32:18 10° S 18:36:24 41° W 18:40:31 10° NNW
Cosmos 1340 4.4 18:35:41 10° N 18:37:02 19° NNE 18:37:02 19° NNE
Nadezhda 3 Rocket 4.1 18:37:09 10° SSE 18:43:17 55° E 18:49:30 10° NNE
SJ-6B 4.1 18:45:52 24° NNE 18:45:52 24° NNE 18:47:40 10° N
Cosmos 2058 2.9 18:43:53 10° S 18:47:58 54° E 18:49:10 39° NE
SL-16 R/B 4.3 18:54:02 10° N 18:55:38 12° NNE 18:55:38 12° NNE
Thor Agena Rocket 4.0 18:56:38 38° ESE 18:56:38 38° ESE 19:01:08 10° SSE
Cosmos 1937 Rocket 4.1 18:55:21 10° N 18:59:49 37° NE 18:59:49 37° NE
Cosmos 44 3.1 18:59:24 10° SW 19:03:44 77° NW 19:04:57 47° NNE
Cosmos 1934 Rocket 4.0 18:57:37 10° N 19:03:53 57° ENE 19:10:09 10° SSE
ERBS 2.7 19:00:31 10° NW 19:03:22 59° NW 19:03:22 59° NW
Cosmos 371 Rocket 3.4 18:59:38 10° S 19:04:06 50° ESE 19:04:06 50° ESE
Cosmos 1515 Rocket 3.6 19:00:46 10° NNW 19:05:07 74° W 19:09:26 10° S
Cosmos 2151 2.8 19:03:31 10° S 19:07:48 82° E 19:08:47 53° NNE
Cosmos 1605 Rocket 4.2 19:02:46 10° N 19:08:18 42° ENE 19:08:18 42° ENE
Cosmos 1980 Rocket 3.6 19:04:20 10° N 19:07:38 22° NNE 19:07:38 22° NNE
Resurs 01 Rocket 3.8 19:15:18 14° N 19:15:18 14° N 19:16:03 10° N
USA 215 3.8 19:10:36 33° NE 19:12:56 46° N 19:19:05 10° WNW
COSMO-SKYMED 1 4.0 19:09:19 10° N 19:13:20 37° WNW 19:17:19 10° SW
RESURS DK-1 3.7 19:11:16 10° NNW 19:13:31 28° N 19:13:31 28° N
H-2A R/B 3.9 19:17:05 10° S 19:20:44 43° W 19:24:28 10° NNW
Cosmos 2239 Rocket 4.4 19:15:02 10° N 19:21:13 87° W 19:27:22 10° S
Cosmos 1500 Rocket 3.5 19:17:24 10° S 19:21:53 85° W 19:22:16 74° N
ATLAS 5 CENTAUR R/B 3.7 19:18:14 10° NW 19:22:20 22° NNE 19:22:20 22° NNE
Cosmos 1455 3.6 19:22:36 10° NNW 19:26:12 38° W 19:29:45 10° SSW
Cosmos 2278 3.8 19:20:38 10° NNW 19:25:57 57° NE 19:25:57 57° NE
Cosmos 2228 Rocket 4.4 19:24:44 10° NNW 19:29:03 41° W 19:33:21 10° SSW
USA 81 4.3 19:28:22 10° SSW 19:33:37 67° W 19:38:53 10° N
COSMOS 2406 3.2 19:30:43 10° SSW 19:36:28 80° WNW 19:37:42 56° NNE
Cosmos 1743 Rocket 4.4 19:32:27 10° SSW 19:36:40 48° WNW 19:38:08 34° NNW
Cosmos 44 Rocket 3.8 19:34:12 10° WSW 19:38:48 53° NW 19:39:05 52° NNW
Cosmos 2369 3.7 19:35:01 10° NNW 19:40:21 72° NNE 19:40:21 72° NNE
Cosmos 1898 Rocket 3.6 19:43:41 10° NNW 19:48:54 72° W 19:48:54 72° W
Cosmos 1697 Rocket 3.6 19:49:31 10° NNW 19:53:01 38° N 19:53:01 38° N
Cosmos 1656 4.2 19:52:02 10° NNW 19:56:03 50° NNW 19:56:03 50° NNW
Lacrosse 5 4.4 20:01:09 10° SSW 20:01:13 10° SSW 20:01:13 10° SSW
Envisat 4.0 20:11:43 44° WNW 20:11:43 44° WNW 20:15:51 10° NNW
Cosmos 2322 Rocket 4.4 20:15:09 10° NNW 20:16:16 15° N 20:16:16 15° N
Cosmos 1980 Rocket 4.3 20:47:52 10° NNW 20:49:26 19° NNW 20:49:26 19° NNW
USA 215 4.3 20:57:56 38° NW 20:57:56 38° NW 21:01:52 10° WNW
